Other Public Products
Issued by NWS Grand Forks, ND

Home | Current Version | Previous Version | Text Only | Print | Product List | Glossary Off
Versions: 1 2 3 4 5 6 7 8 9 10 11 12 13 14 15 16 17 18 19 20 21 22 23 24 25 26 27 28 29 30 31 32 33 34 35 36 37 38 39 40 41 42 43 44 45 46 47 48 49 50

000
FPUS83 KFGF 120210
OPUFGF
PRAIRIE TO PINES WEATHER ROUNDUP
NATIONAL WEATHER SERVICE EASTERN NORTH DAKOTA/GRAND FORKS ND
800 PM CST MON DEC 11 2017

 **SATELLITE DATA USED TO AUGMENT SKY COVER AT AUTOMATED STATIONS**
 *****  WEATHER ACROSS EASTERN NORTH DAKOTA  *****

CITY           SKY/WX    TMP DP  RH WIND       PRES   REMARKS
GRAND FORKS    FAIR       4   2  91 CALM      30.35S
GRND FORKS AFB CLEAR      5   1  85 W5        30.35S WCI  -4
GRND FORKS NWS   N/A      7 N/A N/A N1          N/A
BUXTON         NOT AVBL
DEVILS LAKE    FAIR      15  12  88 W3        30.31S
FARGO          FAIR      10   6  84 N9        30.36R WCI  -3
WAHPETON ARPT    N/A     14   9  79 N12G17    30.34S WCI   0
$$

 *****  WEATHER ACROSS CENTRAL AND WESTERN NORTH DAKOTA  *****

CITY           SKY/WX    TMP DP  RH WIND       PRES   REMARKS
JAMESTOWN      FAIR      15  12  88 NW5       30.32S WCI   8
BISMARCK       FAIR      21  16  81 CALM      30.35F
MINOT          FAIR      22  18  85 SW7       30.30F WCI  13
MINOT AFB      FAIR      17  14  89 W8        30.29F WCI   7
GARRISON         N/A     24  21  88 W9        30.32R WCI  14
WILLISTON      FAIR      24  21  88 W3        30.33F
DICKINSON      CLOUDY    33  30  88 W8        30.31F
HETTINGER      CLOUDY    35  26  69 NW8       30.35S
$$

 *****  OTHER OBSERVATIONS NORTHEAST NORTH DAKOTA  *****

CITY           SKY/WX    TMP DP  RH WIND       PRES   REMARKS
WALHALLA       FAIR       9   9 100 W5        30.33S WCI   0
LANGDON        FAIR       3   1  92 W6        30.28S WCI  -8
CAVALIER       FAIR       9   5  85 W7        30.33F WCI  -3
GRAFTON        FAIR       9   7  92 CALM      30.36F
CANDO          FAIR      10  10 100 W6        30.31F WCI   1
FORT TOTTEN      N/A     16  12  84 CALM      29.95S
ROLLA          FAIR      12  10  92 W8        30.27S WCI   1
RUGBY          FAIR      14  12  92 SW8       30.30S WCI   3
 ***** THE ABOVE OBSERVATIONS ARE NON NWS ARE NOT QUALITY
        CONTROLLED AND MAY MIS-REPORT RAIN FOR SNOW...
$$

 *****  OTHER OBSERVATIONS SOUTHEAST NORTH DAKOTA *****

CITY           SKY/WX    TMP DP  RH WIND       PRES   REMARKS
COOPERSTOWN    FAIR      10   9  92 CALM      30.33S
VALLEY CITY    FAIR      12  12 100 NW6       30.34S WCI   3
OAKES            N/A     14  14 100 N6        30.34R WCI   5
GWINNER          N/A     14  10  85 NW8       30.34R WCI   3
SHEYENNE NWR     N/A     14   8  78 N3        29.95
BUFFALO        NOT AVBL
WYNDMERE       NOT AVBL
 ***** THE ABOVE OBSERVATIONS ARE NON NWS ARE NOT QUALITY
       CONTROLLED AND MAY MIS-REPORT RAIN FOR SNOW...
$$

  *****  WEATHER ACROSS NORTHERN MINNESOTA  *****

CITY           SKY/WX    TMP DP  RH WIND       PRES   REMARKS
FLAG ISLAND    FAIR       3   0  85 NW20      30.24S WCI -18
WARROAD        FAIR       3   0  85 W6        30.28S WCI  -8
ROSEAU         FAIR       3   0  85 W9        30.29S WCI -11
HALLOCK        FAIR       7   3  85 NW3       30.33F
THF RVR FALLS  FLURRIES   5   1  83 NW9       30.32R WCI  -9
HALSTAD        NOT AVBL
FOSSTON        FAIR       3   0  85 NW8       30.29S WCI -10
BAUDETTE       FAIR       5   0  79 NW17      30.23R WCI -14
WASKISH        FAIR       7   1  78 NW9       30.24S WCI  -7
CROOKSTON      FAIR       7   1  78 N8        30.36R WCI  -6
$$
  *****  WEATHER ACROSS CENTRAL AND WEST MINNESOTA  *****

CITY           SKY/WX    TMP DP  RH WIND       PRES   REMARKS
BEMIDJI        FAIR       5   1  82 NW10      30.24R WCI -10
PARK RAPIDS    FAIR       7   2  80 NW12      30.22R WCI  -8
WADENA         FAIR       7   3  85 NW12      30.24R WCI  -9
DETROIT LAKES  LGT SNOW   9   5  85 NW10      30.29R WCI  -6
MOORHEAD       FAIR       9   3  78 CALM      30.36R
FERGUS FALLS   FAIR       9   5  85 N13G18    30.35R WCI  -7
ELBOW LAKE     FAIR      10   7  85 NW14G22   30.30S WCI  -5
MORRIS MN      FAIR      12   7  79 NW20G28   30.29R WCI  -6
STAPLES        CLOUDY     9   5  85 NW10      30.23R WCI  -6
WHEATON        FAIR      12   9  85 NW9       30.36S WCI   0
$$
  *****  WEATHER ELSEWHERE ACROSS MINNESOTA  *****

CITY           SKY/WX    TMP DP  RH WIND       PRES   REMARKS
DULUTH         MOCLDY    13   6  74 NW10      30.07R WCI   0
INTRNTL FALLS  FAIR       8   0  69 NW12      30.19R WCI  -7
ELY            CLOUDY     9   1  72 NW9G24    30.08R WCI  -5
CLOQUET        FLURRIES  14   7  73 NW10      30.11R WCI   1
BRAINERD       FAIR      15   7  70 NW15      30.20R WCI   0
HIBBING        MIX PCPN  10   4  76 NW15      30.12R WCI  -7
ALEXANDRIA     FAIR      11   5  77 NW14      30.25R WCI  -5
SAINT CLOUD    FAIR      18  12  77 NW17      30.19R WCI   3
MINNEAPOLIS    FAIR      22  13  68 N16       30.17R WCI   8
$$

  *****  WEATHER ACROSS SOUTH DAKOTA  *****

CITY           SKY/WX    TMP DP  RH WIND       PRES   REMARKS
SIOUX FALLS    FAIR      22  16  78 N16G25    30.30R WCI   8
BROOKINGS      FAIR      18  14  84 N15       30.30R WCI   4
WATERTOWN      FAIR      17  14  88 N12       30.29R WCI   4
HURON          FAIR      20  16  84 N9        30.35R WCI   9
SISSETON         N/A     16  11  80 NW10      30.33R WCI   4
ABERDEEN       FAIR      15  12  88 N7        30.36R WCI   5
MITCHELL       FAIR      23  17  78 N13       30.37R WCI  11
PIERRE         FAIR      31  28  89 W7        30.36R WCI  24
MOBRIDGE       CLOUDY    29  25  85 N5        30.33R WCI  24
RAPID CITY     FAIR      26  20  77 N10       30.38R WCI  16
$$

  *****  SOME WEATHER IN NEARBY STATES *****

CITY           SKY/WX    TMP DP  RH WIND       PRES   REMARKS
GLASGOW MT     FAIR      30  23  75 SW5       30.34F
GREAT FALLS MT FAIR      43  12  28 SW15      30.36S
CHEYENNE WY    FAIR      34  12  40 N10       30.42R
SCOTTSBLUFF NE FAIR      33  13  43 NW9       30.41R
OMAHA NE       FAIR      34  23  64 NW20G28   30.24R WCI  23
DES MOINES IA  CLOUDY    32  22  66 NW26G35   30.14R WCI  18
DAVENPORT IA   CLOUDY    35  31  85 NW18      29.95R WCI  24
CHICAGO IL     CLOUDY    33  28  81 NW17      29.79R WCI  22
EAU CLAIRE WI  FAIR      21  10  62 N12G25    30.06R WCI   9
LA CROSSE WI   MOCLDY    28  15  58 N24G39    30.03R WCI  14
$$

  *****  SOME NATIONAL WEATHER *****

CITY           SKY/WX    TMP DP  RH WIND       PRES   REMARKS
LA GUARDIA NY  MOCLDY    40  21  46 SW5       29.99F
RALEIGH NC     FAIR      42  29  59 S6        29.98F
ATLANTA GA     FAIR      50  35  56 SW8       29.99F
NEW ORLEANS LA FAIR      55  47  74 SW9       30.15S
OKLAHOMA CITY  FAIR      47  20  34 NW8       30.20R
ALBUQUERQUE NM FAIR      40   1  19 CALM      30.38R
SALT LAKE CITY FOG       27  26  96 CALM      30.58S VSB 1/4
LOS ANGELES CA FAIR      65  36  34 W8        30.17R
BOISE ID       CLOUDY    25  21  85 NW6       30.64S WCI  18
SEATTLE WA     FAIR      42  35  76 S6        30.37S
$$

*** WEATHER ACROSS MANITOBA...SASKATCHEWAN AND ONTARIO ***
                ***ONTARIO***

CITY           SKY/WX    TMP DP  RH WIND       PRES   REMARKS
GERALDTON      LGT SNOW   0  -6  78 NW12      29.96R DRFTSNOWWCI -18
THUNDER BAY    PTCLDY     9   0  66 NW21G30   30.06R WCI -11
SIOUX LOOKOUT  NOT AVBL
TORONTO        FLURRIES  27  23  86 SE3       29.77F
BIG TROUT LK   FLURRIES  -6 -11  77 NW6       30.07R WCI -18
PICKLE LAKE    CRYSTALS  -6  -9  84 W8        30.02R WCI -21
DRYDEN         CLEAR      1  -4  78 NW8G17    30.13R WCI -12
KENORA         CLEAR      3  -2  78 NW10      30.19R WCI -12
$$
                *** MANITOBA***

CITY           SKY/WX    TMP DP  RH WIND       PRES   REMARKS
BRANDON        CLOUDY    19  14  79 W7        30.27F WCI  10
DAUPHIN        CLOUDY    19  14  79 W12       30.25F WCI   7
ISLAND LAKE    CLEAR     -9 -15  77 NW7       30.18S WCI -24
PILOT MOUND      N/A      9   5  85 SW2         N/A
THE PAS        CLOUDY    10   7  85 SE6       30.19F WCI   1
THOMPSON       PTCLDY    -9 -15  77 W2        30.18F
WINNIPEG       CLEAR      1   0  92 NW6       30.32F WCI -10
LYNN LAKE      FOG       -2  -6  84 CALM      30.12F VSB 3/4
CHURCHILL      CRYSTALS -13 -18  77 NW13G20   30.09F WCI -34
$$
                ***SASKATCHEWAN***

CITY           SKY/WX    TMP DP  RH WIND       PRES   REMARKS
ESTEVAN        MOCLDY    32  28  86 SW8       30.28F WCI  25
KINDERSLEY     PTCLDY    30  23  74 W13       30.22F WCI  20
LLOYDMINSTER   PTCLDY    34  25  69 W9        30.12F
PRINCE ALBERT  CLOUDY    23  23 100 SW3       30.16F
REGINA         CLEAR     27  25  93 W10       30.24F WCI  17
YORKTON        CLOUDY    28  27  93 SW8       30.19F WCI  20
N. BATTLEFORD  MOCLDY    30  23  74 SW7       30.18F WC



USA.gov is the U.S. government's official web portal to all federal, state and local government web resources and services.